Regional Weather Roundup
Issued by NWS

Home | Current Version | Previous Version | Text Only | Print | Product List | Glossary Off
Versions: 1 2 3 4 5 6 7 8 9 10 11 12 13 14 15 16 17 18 19 20 21 22 23 24 25 26 27 28 29 30 31 32 33 34 35 36 37 38 39 40 41 42 43 44 45 46 47 48 49 50

928
ASUS43 KLSX 060857
RWRMO

WEATHER SUMMARY FOR MISSOURI
NATIONAL WEATHER SERVICE SPRINGFIELD MO
400 AM CDT FRI MAY 06 2016

NOTE: "FAIR" INDICATES FEW OR NO CLOUDS BELOW 12,000 FEET WITH NO
       SIGNIFICANT WEATHER AND/OR OBSTRUCTIONS TO VISIBILITY.
       CURRENT SKY AND/OR WEATHER CONDITIONS ARE NOT AVAILABLE FOR
       CHILLICOTHE AND FARMINGTON.

MOZ001>031-035>038-043-044-053-054-061000-
...NORTHERN AND WESTERN MISSOURI...

CITY           SKY/WX    TMP DP  RH WIND       PRES   REMARKS
KANSAS CTY INT CLEAR     51  41  68 S7        30.05R
LEE`S SUMMIT   CLEAR     54  39  57 SW6       30.06R
ST JOSEPH      PTCLDY    49  46  90 CALM      30.04S
CHILLICOTHE      N/A     45  44  97 CALM      30.05S

$$
MOZ066>068-077>081-088>096-101>105-061000-
...SOUTHWEST MISSOURI...

CITY           SKY/WX    TMP DP  RH WIND       PRES   REMARKS
SPRINGFIELD    CLEAR     45  37  73 S3        30.07R
JOPLIN         CLEAR     47  42  83 SE3       30.08R

$$
MOZ032>034-039>042-045>050-055>058-069>072-061000-
...CENTRAL MISSOURI...

CITY           SKY/WX    TMP DP  RH WIND       PRES   REMARKS
COLUMBIA       NOT AVBL
JEFFERSON CITY CLEAR     44  40  85 CALM      30.06S
SEDALIA        CLEAR     50  39  66 S6        30.07S
WARRENSBURG    CLEAR     45  43  93 CALM      30.06S

$$
MOZ051-052-059>065-061000-
...EAST CENTRAL MISSOURI...

CITY           SKY/WX    TMP DP  RH WIND       PRES   REMARKS
ST LOUIS INTL  CLEAR     50  42  74 CALM      30.04S

$$
MOZ072>076-082>087-097>100-106>115-061000-
...SOUTH CENTRAL AND SOUTHEAST MISSOURI...

CITY           SKY/WX    TMP DP  RH WIND       PRES   REMARKS
CAPE GIRARDEAU CLEAR     44  42  93 CALM      30.03S
POPLAR BLUFF   CLEAR     47  43  86 CALM      30.05R
WEST PLAINS    CLEAR     43  36  76 CALM      30.08S

$$



USA.gov is the U.S. government's official web portal to all federal, state and local government web resources and services.